When you browse on this site, cookies collect data to enhance your experience and personalize the content and advertising you see.
Visit our Privacy Policy to learn more. By continuing to use the site, you agree to this use of cookies and data.
  • Em Portugal
  • Lista de países
  • Para 7 dias
  • Temperatura da água
  • Mapas de satélite
  • Mapa do tempo
  • Widgets de tempo
  • user-avatar
    Iniciar Sessão

    Previsão horária em Viedma

    Hoje, 22 Maio, Quarta-feira

    Tempo Temperatura Precipitação Vento Pressão Humidade
    00:00 +9°C° 0 mm 3 m/s 765 mmHg 43%
    01:00 +8°C° 0 mm 3 m/s 765 mmHg 46%
    02:00 +7°C° 0 mm 4 m/s 764 mmHg 49%
    03:00 +7°C° 0 mm 4 m/s 764 mmHg 50%
    04:00 +7°C° 0 mm 5 m/s 764 mmHg 51%
    05:00 +6°C° 0 mm 5 m/s 763 mmHg 52%
    06:00 +6°C° 0 mm 5 m/s 763 mmHg 53%
    07:00 +6°C° 0 mm 5 m/s 763 mmHg 54%
    08:00 +5°C° 0 mm 6 m/s 762 mmHg 56%
    09:00 +9°C° 0 mm 6 m/s 762 mmHg 48%
    10:00 +11°C° 0 mm 7 m/s 762 mmHg 40%
    11:00 +13°C° 0 mm 8 m/s 762 mmHg 32%
    12:00 +15°C° 0 mm 8 m/s 762 mmHg 30%
    13:00 +17°C° 0 mm 8 m/s 761 mmHg 28%
    14:00 +18°C° 0 mm 8 m/s 760 mmHg 25%
    15:00 +17°C° 0 mm 7 m/s 760 mmHg 28%
    16:00 +15°C° 0 mm 6 m/s 760 mmHg 31%
    17:00 +14°C° 0 mm 5 m/s 759 mmHg 34%
    18:00 +14°C° 0 mm 5 m/s 759 mmHg 36%
    19:00 +13°C° 0 mm 5 m/s 759 mmHg 39%
    20:00 +12°C° 0 mm 5 m/s 759 mmHg 42%
    21:00 +12°C° 0 mm 5 m/s 759 mmHg 44%
    22:00 +10°C° 0 mm 5 m/s 759 mmHg 46%
    23:00 +10°C° 0 mm 5 m/s 759 mmHg 48%

    Amanhã, 23 Maio, Quinta-feira

    Tempo Temperatura Precipitação Vento Pressão Humidade
    00:00 +10°C° 0 mm 5 m/s 758 mmHg 48%
    01:00 +9°C° 0 mm 5 m/s 758 mmHg 48%
    02:00 +9°C° 0 mm 5 m/s 758 mmHg 49%
    03:00 +10°C° 0 mm 4 m/s 758 mmHg 48%
    04:00 +10°C° 0 mm 4 m/s 758 mmHg 48%
    05:00 +8°C° 0 mm 4 m/s 757 mmHg 47%
    06:00 +8°C° 0 mm 4 m/s 758 mmHg 46%
    07:00 +10°C° 0 mm 4 m/s 758 mmHg 45%
    08:00 +10°C° 0 mm 3 m/s 758 mmHg 44%
    09:00 +13°C° 0 mm 4 m/s 758 mmHg 41%
    10:00 +15°C° 0 mm 5 m/s 758 mmHg 39%
    11:00 +19°C° 0 mm 5 m/s 758 mmHg 36%
    12:00 +19°C° 0 mm 5 m/s 758 mmHg 38%
    13:00 +19°C° 0 mm 5 m/s 757 mmHg 39%
    14:00 +20°C° 0 mm 5 m/s 757 mmHg 41%
    15:00 +18°C° 0 mm 4 m/s 757 mmHg 44%
    16:00 +17°C° 0 mm 3 m/s 757 mmHg 48%
    17:00 +16°C° 0 mm 3 m/s 757 mmHg 52%
    18:00 +15°C° 0 mm 2 m/s 757 mmHg 52%
    19:00 +15°C° 0 mm 2 m/s 757 mmHg 53%
    20:00 +14°C° 0 mm 2 m/s 757 mmHg 54%
    21:00 +14°C° 0 mm 2 m/s 757 mmHg 53%
    22:00 +14°C° 0 mm 2 m/s 757 mmHg 51%
    23:00 +13°C° 0 mm 2 m/s 757 mmHg 50%

    Depois de amanhã, 24 Maio, Sexta-feira

    Tempo Temperatura Precipitação Vento Pressão Humidade
    00:00 +13°C° 0 mm 2 m/s 757 mmHg 48%
    01:00 +13°C° 0 mm 2 m/s 756 mmHg 47%
    02:00 +13°C° 0 mm 2 m/s 756 mmHg 45%
    03:00 +13°C° 0 mm 2 m/s 756 mmHg 44%
    04:00 +13°C° 0 mm 2 m/s 755 mmHg 43%
    05:00 +12°C° 0 mm 2 m/s 755 mmHg 43%
    06:00 +11°C° 0 mm 3 m/s 755 mmHg 43%
    07:00 +11°C° 0 mm 3 m/s 755 mmHg 44%
    08:00 +11°C° 0 mm 3 m/s 755 mmHg 45%
    09:00 +13°C° 0 mm 4 m/s 755 mmHg 38%
    10:00 +15°C° 0 mm 5 m/s 754 mmHg 32%
    11:00 +17°C° 0 mm 5 m/s 754 mmHg 26%
    12:00 +19°C° 0 mm 6 m/s 753 mmHg 24%
    13:00 +20°C° 0 mm 6 m/s 753 mmHg 21%
    14:00 +20°C° 0 mm 6 m/s 752 mmHg 19%
    15:00 +20°C° 0 mm 6 m/s 752 mmHg 19%
    16:00 +19°C° 0 mm 5 m/s 751 mmHg 19%
    17:00 +18°C° 0 mm 4 m/s 751 mmHg 20%
    18:00 +17°C° 0 mm 4 m/s 751 mmHg 21%
    19:00 +15°C° 0 mm 4 m/s 751 mmHg 22%
    20:00 +14°C° 0 mm 5 m/s 751 mmHg 23%
    21:00 +13°C° 0 mm 5 m/s 751 mmHg 25%
    22:00 +13°C° 0 mm 5 m/s 751 mmHg 26%
    23:00 +13°C° 0 mm 5 m/s 751 mmHg 28%

    25 Maio, Sábado

    Tempo Temperatura Precipitação Vento Pressão Humidade
    00:00 +12°C° 0 mm 5 m/s 751 mmHg 30%
    01:00 +12°C° 0 mm 5 m/s 751 mmHg 31%
    02:00 +12°C° 0 mm 5 m/s 751 mmHg 32%
    03:00 +12°C° 0 mm 5 m/s 750 mmHg 33%
    04:00 +10°C° 0 mm 5 m/s 750 mmHg 34%
    05:00 +10°C° 0 mm 5 m/s 750 mmHg 35%
    06:00 +11°C° 0 mm 4 m/s 750 mmHg 35%
    07:00 +11°C° 0 mm 4 m/s 750 mmHg 34%
    08:00 +10°C° 0 mm 4 m/s 751 mmHg 34%
    09:00 +12°C° 0 mm 4 m/s 751 mmHg 31%
    10:00 +14°C° 0 mm 4 m/s 751 mmHg 28%
    11:00 +17°C° 0 mm 4 m/s 751 mmHg 26%
    12:00 +18°C° 0 mm 3 m/s 751 mmHg 25%
    13:00 +19°C° 0 mm 3 m/s 751 mmHg 25%
    14:00 +20°C° 0 mm 3 m/s 751 mmHg 25%
    15:00 +18°C° 0 mm 3 m/s 751 mmHg 32%
    16:00 +16°C° 0 mm 3 m/s 751 mmHg 39%
    17:00 +15°C° 0 mm 2 m/s 752 mmHg 46%
    18:00 +14°C° 0 mm 2 m/s 752 mmHg 50%
    19:00 +13°C° 0 mm 2 m/s 753 mmHg 55%
    20:00 +12°C° 0 mm 1 m/s 753 mmHg 59%
    21:00 +12°C° 0 mm 1 m/s 754 mmHg 59%
    22:00 +12°C° 0 mm 2 m/s 754 mmHg 60%
    23:00 +12°C° 0 mm 2 m/s 754 mmHg 60%

    26 Maio, Domingo

    Tempo Temperatura Precipitação Vento Pressão Humidade
    00:00 +12°C° 0 mm 2 m/s 755 mmHg 64%
    01:00 +12°C° 0 mm 2 m/s 755 mmHg 69%
    02:00 +11°C° 0 mm 3 m/s 755 mmHg 73%
    03:00 +11°C° 0 mm 3 m/s 755 mmHg 76%
    04:00 +10°C° 0 mm 2 m/s 755 mmHg 80%
    05:00 +10°C° 0 mm 2 m/s 756 mmHg 83%
    06:00 +10°C° 0 mm 2 m/s 756 mmHg 83%
    07:00 +10°C° 0 mm 3 m/s 756 mmHg 84%
    08:00 +10°C° 0 mm 3 m/s 757 mmHg 84%
    09:00 +12°C° 0 mm 3 m/s 757 mmHg 75%
    10:00 +14°C° 0 mm 3 m/s 757 mmHg 66%
    11:00 +17°C° 0 mm 4 m/s 757 mmHg 56%
    12:00 +17°C° 0 mm 4 m/s 757 mmHg 54%
    13:00 +18°C° 0 mm 4 m/s 756 mmHg 53%
    14:00 +18°C° 0 mm 4 m/s 756 mmHg 51%
    15:00 +17°C° 0 mm 4 m/s 756 mmHg 53%
    16:00 +16°C° 0 mm 3 m/s 756 mmHg 56%
    17:00 +14°C° 0 mm 3 m/s 756 mmHg 59%
    18:00 +14°C° 0 mm 3 m/s 756 mmHg 59%
    19:00 +13°C° 0 mm 3 m/s 756 mmHg 59%
    20:00 +12°C° 0 mm 3 m/s 756 mmHg 58%
    21:00 +12°C° 0 mm 3 m/s 756 mmHg 57%
    22:00 +12°C° 0 mm 3 m/s 756 mmHg 55%
    23:00 +12°C° 0 mm 2 m/s 756 mmHg 54%

    27 Maio, Segunda-feira

    Tempo Temperatura Precipitação Vento Pressão Humidade
    00:00 +12°C° 0 mm 2 m/s 756 mmHg 52%
    01:00 +12°C° 0 mm 2 m/s 756 mmHg 51%
    02:00 +10°C° 0 mm 2 m/s 756 mmHg 49%
    03:00 +10°C° 0 mm 2 m/s 756 mmHg 54%
    04:00 +10°C° 0 mm 2 m/s 756 mmHg 59%
    05:00 +10°C° 0 mm 2 m/s 757 mmHg 65%
    06:00 +10°C° 0 mm 2 m/s 757 mmHg 70%
    07:00 +10°C° 0 mm 2 m/s 757 mmHg 75%
    08:00 +10°C° 0 mm 2 m/s 758 mmHg 81%
    09:00 +12°C° 0 mm 2 m/s 758 mmHg 72%
    10:00 +14°C° 0 mm 2 m/s 758 mmHg 63%
    11:00 +16°C° 0 mm 2 m/s 758 mmHg 54%
    12:00 +17°C° 0 mm 3 m/s 758 mmHg 48%
    13:00 +17°C° 0 mm 3 m/s 757 mmHg 42%
    14:00 +18°C° 0 mm 4 m/s 757 mmHg 36%
    15:00 +17°C° 0 mm 4 m/s 757 mmHg 37%
    16:00 +16°C° 0 mm 3 m/s 757 mmHg 39%
    17:00 +14°C° 0 mm 3 m/s 757 mmHg 40%
    18:00 +13°C° 0 mm 3 m/s 757 mmHg 42%
    19:00 +13°C° 0 mm 3 m/s 757 mmHg 44%
    20:00 +12°C° 0 mm 3 m/s 757 mmHg 45%
    21:00 +12°C° 0 mm 3 m/s 757 mmHg 47%
    22:00 +12°C° 0 mm 3 m/s 757 mmHg 48%
    23:00 +12°C° 0 mm 4 m/s 757 mmHg 49%
    Mostrar mais